Home   Weather   Schwerin   Past weeks
Flag for Germany

Past Weather in Schwerin, Mecklenburg-Western Pomerania, Germany — Yesterday and Last 2 Weeks

Now
28 °F

Passing clouds.


Feels Like: 25 °F
Forecast: 31 / 24 °F
Wind: 3 mph from Southwest

Location: Luebeck-Blankensee

Current Time: Jan 19, 2019 at 7:48:19 am

Latest Report: Jan 19, 2019 at 6:50 am


Visibility: 4 mi

Pressure: 30.09 "Hg

Humidity: 93%

Dew Point: 27 °F

Location of SchwerinLocation

Past Weather in Schwerin — Graph

°F

Schwerin Temperature Yesterday

Maximum temperature yesterday: 36 °F (at 1:50 pm)
Minimum temperature yesterday: 21 °F (at 8:20 am)
Average temperature yesterday: 31 °F

High & Low Weather Summary for the Past Weeks

 TemperatureHumidityPressure
High48 °F (Jan 5, 12:20 pm)100% (Jan 4, 8:20 am)30.60 "Hg (Jan 4, 8:20 am)
Low21 °F (Jan 18, 8:20 am)56% (Jan 14, 2:20 pm)29.15 "Hg (Jan 13, 5:50 pm)
Average40 °F86%29.88 "Hg
* Reported Jan 3 6:50 pm — Jan 18 6:50 pm, Schwerin. Weather by CustomWeather, © 2019

Note: Actual official high and low records may vary slightly from our data, if they occured in-between our weather recording intervals... More about our weather records

Advertising

Schwerin Weather History for the Previous 24 Hours

Scroll right to see more
 ConditionsComfort  
Time TempWeatherWind HumidityBarometerVisibility
6:50 pm
Fri, Jan 18
34 °FPassing clouds.6 mph93%30.07 "HgN/A
6:20 pm34 °FPassing clouds.7 mph93%30.07 "HgN/A
5:50 pm34 °FPassing clouds.6 mph93%30.07 "HgN/A
5:20 pm34 °FPassing clouds.6 mph93%30.04 "HgN/A
4:50 pm34 °FPassing clouds.6 mph93%30.04 "HgN/A
4:20 pm34 °FBroken clouds.6 mph93%30.04 "HgN/A
3:50 pm34 °FPartly sunny.7 mph93%30.04 "HgN/A
2:50 pm34 °FBroken clouds.6 mph93%30.01 "HgN/A
2:20 pm36 °FPassing clouds.6 mph87%30.01 "HgN/A
1:50 pm36 °FSunny.8 mph87%30.01 "Hg10 mi
1:20 pm34 °FSunny.6 mph87%30.01 "Hg10 mi
12:50 pm34 °FSunny.5 mph87%30.01 "Hg10 mi
12:20 pm32 °FSunny.7 mph87%30.01 "Hg10 mi
11:50 am32 °FSunny.6 mph80%30.01 "Hg10 mi
11:20 am30 °FSunny.5 mph80%30.01 "Hg10 mi
10:50 am28 °FSunny.3 mph80%30.01 "Hg10 mi
10:20 am28 °FPassing clouds.5 mph80%29.98 "HgN/A
9:50 am27 °FPassing clouds.3 mph86%29.98 "HgN/A
9:20 am25 °FPassing clouds.1 mph93%29.98 "HgN/A
8:50 am23 °FPassing clouds.1 mph93%29.98 "HgN/A
8:20 am21 °FClear.2 mph93%29.95 "Hg10 mi
7:20 am23 °FClear.6 mph93%29.95 "Hg10 mi
Weather by CustomWeather, © 2019

See weather overview